This is the latest recevied weather packets stored in our database for station/object KC3QLX. If no packets are shown the sender has not sent any weather packets the latest 10 day(s).
| Time | Temp. | Humidity | Pressure | Rain* | Wind** | Luminosity | Snow |
|---|---|---|---|---|---|---|---|
| 1778105555 | 16.67° C | 98% | 1007 hPa | 3.05 mm | - | 9 W/m² | - |
| 1778105252 | 16.67° C | 97% | 1006.8 hPa | 3.05 mm | - | 29 W/m² | - |
| 1778104947 | 17.22° C | 97% | 1006.8 hPa | 1.78 mm | - | 18 W/m² | - |
| 1778104644 | 17.22° C | 96% | 1006.7 hPa | 0 mm | - | 17 W/m² | - |
| 1778104339 | 17.22° C | 96% | 1006.6 hPa | 0 mm | - | 19 W/m² | - |
| 1778104036 | 17.22° C | 96% | 1006.6 hPa | 0 mm | - | 19 W/m² | - |
| 1778103733 | 17.22° C | 96% | 1006.6 hPa | 0 mm | - | 28 W/m² | - |
| 1778103431 | 17.22° C | 95% | 1006.5 hPa | 0 mm | - | 51 W/m² | - |
| 1778103128 | 17.78° C | 96% | 1006.4 hPa | 0 mm | - | 69 W/m² | - |
| 1778102825 | 17.78° C | 96% | 1006.3 hPa | 0 mm | - | 92 W/m² | - |
| 1778102521 | 17.22° C | 96% | 1006.4 hPa | 0 mm | - | 176 W/m² | - |
| 1778102216 | 17.22° C | 97% | 1006.3 hPa | 0 mm | - | 91 W/m² | - |
| 1778101913 | 17.22° C | 98% | 1006.2 hPa | 0 mm | - | 150 W/m² | - |
| 1778101610 | 17.22° C | 99% | 1006.2 hPa | 0 mm | - | 186 W/m² | - |
| 1778101307 | 17.22° C | 99% | 1006.1 hPa | 0 mm | - | 154 W/m² | - |
| 1778101004 | 17.22° C | 99% | 1006.2 hPa | 0 mm | - | 243 W/m² | - |
| 1778100699 | 16.67° C | 99% | 1006.4 hPa | 0 mm | - | 145 W/m² | - |
| 1778100397 | 16.67° C | 99% | 1006.2 hPa | 0 mm | - | 221 W/m² | - |
| 1778100093 | 16.11° C | 99% | 1006.1 hPa | 0 mm | - | 115 W/m² | - |
| 1778099792 | 16.11° C | 99% | 1006.2 hPa | 0 mm | - | 72 W/m² | - |
| 1778099488 | 16.11° C | 99% | 1006.3 hPa | 0 mm | - | 76 W/m² | - |
| 1778099186 | 16.11° C | 99% | 1006.2 hPa | 0 mm | - | 76 W/m² | - |
| 1778098882 | 16.11° C | 99% | 1006.2 hPa | 0 mm | - | 94 W/m² | - |
| 1778098579 | 16.11° C | 99% | 1006.3 hPa | 0 mm | - | 40 W/m² | - |
| 1778098276 | 16.11° C | 99% | 1006.4 hPa | 0 mm | - | 74 W/m² | - |
* Rain latest hour (hover to see other rain measurements)
** Current wind speed in m/s (hover to see current wind gust speed)